[[{"header":{"parameterUnit":"m.s-1","parameterCategory":1,"la1":30.2991,"la2":30.254,"lo1":-89.0895,"lo2":-89.0444,"dy":0.0017,"dx":0.0017,"nx":28,"ny":28,"refTime":"2025-05-20T21:00:00:Z","depth":0,"parameterNumber":2,"parameterNumberName":"U-component_of_WINDS"},"data":[0,0,0,0,0,0,0,0,0,0,0,0,0,0,0,0,0,0,0,0,0,0,0,0,0,0,0,0,0,0,0,0,0,0,0,0,0,0,0,0,0,0,0,0,0,0,0,0,0,0,0,0,0,0,0,0,0,0,4.4253,4.4254,0,4.4369,4.437,4.4371,4.4328,4.4326,4.4323,4.4321,4.4441,4.4447,4.4452,0,0,0,0,0,0,0,0,0,0,0,0,0,4.3994,4.3999,4.4252,4.4254,4.4255,4.4369,4.437,4.4372,4.4329,4.4326,4.4322,4.4319,4.4439,4.4446,4.4453,0,0,0,0,0,0,0,0,0,0,0,0,0,4.4108,4.4001,4.4252,4.4248,4.4248,4.4368,4.437,4.4372,4.433,4.4326,4.4322,4.4318,4.4437,4.4445,4.4454,4.4586,0,0,4.448,4.4483,0,0,0,0,0,0,0,0,4.4102,4.4118,4.4247,4.4248,4.4249,4.433,4.4323,4.4444,4.4331,4.4299,4.4321,4.4316,4.4407,4.4418,4.4449,4.4591,4.4596,4.448,4.4486,4.4489,4.4492,0,0,0,0,0,0,0,4.4094,4.4112,4.4298,4.4249,4.425,4.424,4.4252,4.4346,4.4374,4.4301,4.4298,4.4313,4.4407,4.4441,4.4451,4.4598,4.448,4.4488,4.4493,4.4496,4.4854,4.4858,0,0,0,0,0,0,4.4085,4.4106,4.4295,4.4302,4.4164,4.4248,4.4261,4.4308,4.4373,4.4379,4.4316,4.431,4.4428,4.4441,4.4455,4.4613,4.4489,4.4497,4.4502,4.485,4.4855,4.486,0,0,0,0,0,0,4.408,4.4103,4.429,4.4203,4.4226,4.4257,4.431,4.4312,4.4346,4.4384,4.4389,4.4345,4.4425,4.4443,4.4553,4.4616,4.4501,4.4509,4.4844,4.4851,4.4857,4.4929,0,0,0,0,0,0,4.4073,4.4101,4.4151,4.4205,4.4231,4.4386,4.4314,4.4318,4.436,4.4354,4.4412,4.4418,4.4424,4.4541,4.4562,4.4626,4.4515,4.4839,4.4847,4.4855,4.4922,4.4938,4.4952,0,0,0,0,0,4.4064,4.4167,4.4154,4.4177,4.4294,4.439,4.4405,4.4409,4.4365,4.4416,4.4441,4.4416,4.4607,4.4552,4.4576,4.4643,4.4835,4.4845,4.4854,4.4915,4.4935,4.4951,0,0,0,0,0,0,4.412,4.4174,4.416,4.4284,4.4332,4.4382,4.4446,4.443,4.4492,4.4483,4.4486,4.45,4.4613,4.4639,4.4578,4.4774,4.4714,4.4729,4.4752,4.4771,4.4786,4.4776,4.4522,0,0,0,0,0,4.4147,4.422,4.4263,4.4368,4.4393,4.4416,4.4457,4.4456,4.4507,4.4527,4.456,4.461,4.4681,4.4728,4.4796,4.4926,4.4937,4.4984,4.4999,4.5011,4.5024,4.5093,4.5114,4.4892,4.4892,4.4892,0,0,4.4204,4.4242,4.4288,4.4381,4.4418,4.4493,4.4433,4.4515,4.4571,4.454,4.4645,4.4671,4.4728,4.4848,4.4902,4.4873,4.5088,4.5024,4.5033,4.5039,4.5106,4.5127,4.5145,4.4899,4.4898,4.4896,0,0,4.4344,4.4381,4.4472,4.4511,4.4568,4.4582,4.4605,4.4657,4.4673,4.4778,4.4756,4.4823,4.4946,4.4986,4.5023,4.518,4.5159,4.5202,4.528,4.5348,4.5365,4.5381,4.5435,4.5455,4.5215,4.5215,4.5215,0,4.4407,4.4518,4.4521,4.4605,4.4646,4.4621,4.4713,4.4751,4.4828,4.4857,4.4824,4.4977,4.5013,4.5142,4.518,4.5212,4.5236,4.5194,4.5362,4.5378,4.5393,4.5444,4.5465,4.522,4.5219,4.5219,4.5218,0,4.4592,4.467,4.4737,4.4811,4.486,4.4948,4.4964,4.5013,4.5008,4.5026,4.5134,4.5177,4.5252,4.5283,4.528,4.5412,4.5392,4.5361,4.53,4.5418,4.5467,4.5487,4.5226,4.5225,4.5223,4.5222,0,0,4.477,4.4845,4.4869,4.4902,4.4964,4.5024,4.5111,4.5184,4.5226,4.5281,4.5352,4.5457,4.5428,4.547,4.5471,4.5531,4.5651,4.5493,4.5494,4.5519,4.5798,4.5819,4.5842,4.5638,4.5642,4.5645,4.5792,0,4.4914,4.5065,4.507,4.5208,4.528,4.5258,4.5334,4.538,4.5399,4.5463,4.5485,4.5558,4.5515,4.554,4.5599,4.5624,4.5706,4.5614,4.5705,4.5708,4.5689,4.5868,4.5891,4.6028,4.5812,4.5815,4.5817,0,4.5102,4.5161,4.5306,4.5357,4.5387,4.5455,4.5522,4.5584,4.5636,4.5646,4.5693,4.5685,4.5774,4.5712,4.5833,4.577,4.5808,4.5826,4.5832,4.5839,4.5768,4.5878,4.6072,4.6091,4.5848,4.5845,4.5843,0,4.5215,4.5331,4.5433,4.5462,4.5525,4.5572,4.5601,4.5649,4.5693,4.5752,4.578,4.585,4.5887,4.5941,4.5952,4.5906,4.6074,4.6013,4.6084,4.6083,4.6118,4.6115,4.6319,4.6146,4.6146,4.6146,4.6145,0,4.5374,4.5463,4.5484,4.5546,4.5646,4.5652,4.575,4.5775,4.5818,4.5885,4.5871,4.5934,4.5946,4.6012,4.6021,4.612,4.6138,4.6148,4.6149,4.6148,4.6146,4.6171,4.6161,4.6151,4.615,4.6149,4.6148,0,4.5516,4.5534,4.5643,4.5693,4.5708,4.5779,4.5822,4.5882,4.59,4.5985,4.6005,4.6033,4.611,4.6127,4.6218,4.6225,4.6341,4.6334,4.6323,4.6322,4.6391,4.6383,4.6615,4.6645,4.6455,4.6457,4.6459,0,4.5615,4.5683,4.574,4.5784,4.5814,4.5885,4.5929,4.5938,4.5985,4.6049,4.6101,4.6176,4.6236,4.636,4.6389,4.6459,4.6452,4.6529,4.6462,4.6459,4.6451,4.6446,4.6452,4.654,4.6542,4.6544,4.6545,0,4.5788,4.5794,4.5858,4.5925,4.5978,4.6032,4.6083,4.612,4.6136,4.6189,4.6267,4.6314,4.6407,4.6481,4.6551,4.658,4.6566,4.6566,4.6586,4.6585,4.6575,4.6579,4.6355,4.6561,4.6559,4.6558,4.6557,4.6556,4.5911,4.5969,4.6019,4.6091,4.613,4.6179,4.6237,4.6262,4.6327,4.6403,4.6405,4.6489,4.654,4.6632,4.6666,4.6732,4.6708,4.6737,4.6744,4.6751,4.6756,4.6566,4.6745,4.6745,4.6744,4.6744,4.6744,0,4.6081,4.6112,4.6179,4.625,4.6307,4.6289,4.6344,4.6393,4.6467,4.6515,4.6575,4.6664,4.6736,4.6771,4.6843,4.6889,4.6884,4.6907,4.6903,4.691,4.6774,4.6749,4.691,4.691,4.691,4.691,4.691,4.691,4.6177,4.6275,4.6287,4.6405,4.6435,4.6518,4.6551,4.6595,4.6633,4.6734,4.6793,4.6816,4.6859,4.6933,4.6998,4.7007,4.7033,4.7059,4.7064,4.6936,4.6919,4.6903,4.6879,4.7065,4.7065,4.7194,4.7195,4.7196]},{"header":{"parameterUnit":"m.s-1","parameterCategory":1,"la1":30.2991,"la2":30.254,"lo1":-89.0895,"lo2":-89.0444,"dy":0.0017,"dx":0.0017,"nx":28,"ny":28,"refTime":"2025-05-20T21:00:00:Z","depth":0,"parameterNumber":3,"parameterNumberName":"V-component_of_WINDS"},"data":[0,0,0,0,0,0,0,0,0,0,0,0,0,0,0,0,0,0,0,0,0,0,0,0,0,0,0,0,0,0,0,0,0,0,0,0,0,0,0,0,0,0,0,0,0,0,0,0,0,0,0,0,0,0,0,0,0,0,0.4471,0.4472,0,0.4564,0.4565,0.4566,0.4616,0.4616,0.4616,0.4616,0.4714,0.4717,0.4719,0,0,0,0,0,0,0,0,0,0,0,0,0,0.4338,0.434,0.4471,0.4472,0.4473,0.4564,0.4565,0.4566,0.4616,0.4616,0.4616,0.4616,0.4714,0.4716,0.472,0,0,0,0,0,0,0,0,0,0,0,0,0,0.441,0.4341,0.4471,0.4509,0.4513,0.4564,0.4565,0.4567,0.4616,0.4616,0.4616,0.4617,0.4713,0.4716,0.472,0.474,0,0,0.4731,0.4733,0,0,0,0,0,0,0,0,0.4406,0.4415,0.4502,0.4506,0.4511,0.4579,0.4554,0.4625,0.4616,0.4577,0.4616,0.4617,0.4669,0.4677,0.4694,0.4745,0.4749,0.4732,0.4734,0.4736,0.4737,0,0,0,0,0,0,0,0.4401,0.4411,0.4508,0.4503,0.4509,0.4522,0.4532,0.4568,0.4621,0.4581,0.4584,0.4595,0.4672,0.469,0.4696,0.475,0.4732,0.4735,0.4737,0.4739,0.4822,0.4822,0,0,0,0,0,0,0.4389,0.4407,0.4505,0.4511,0.4458,0.4524,0.4536,0.4557,0.4621,0.4631,0.4594,0.4597,0.4683,0.4692,0.47,0.4728,0.4736,0.4739,0.4741,0.4822,0.4822,0.4822,0,0,0,0,0,0,0.4386,0.4398,0.4501,0.446,0.4474,0.4526,0.455,0.4559,0.4577,0.4631,0.4641,0.4603,0.4684,0.4695,0.473,0.4732,0.4741,0.4744,0.4823,0.4822,0.4822,0.4784,0,0,0,0,0,0,0.4382,0.4396,0.4404,0.4459,0.4476,0.4528,0.455,0.456,0.4583,0.4587,0.4642,0.4652,0.4685,0.4724,0.4733,0.4737,0.4747,0.4823,0.4822,0.4822,0.4785,0.4782,0.478,0,0,0,0,0,0.4377,0.439,0.4404,0.4416,0.4487,0.4528,0.4538,0.4575,0.4583,0.4592,0.4626,0.465,0.473,0.4727,0.4738,0.4743,0.4823,0.4823,0.4822,0.4786,0.4783,0.478,0,0,0,0,0,0,0.4335,0.4398,0.4414,0.4445,0.4481,0.4537,0.4549,0.4571,0.4605,0.4608,0.4653,0.4665,0.4696,0.4723,0.4718,0.4766,0.4779,0.4781,0.4747,0.4745,0.4742,0.4735,0.475,0,0,0,0,0,0.4329,0.4357,0.4411,0.4433,0.445,0.4496,0.4516,0.4541,0.458,0.4596,0.4633,0.4671,0.4705,0.4726,0.476,0.4789,0.4802,0.4798,0.4795,0.4793,0.4795,0.4812,0.481,0.4822,0.4822,0.4822,0,0,0.4317,0.4355,0.437,0.4425,0.4456,0.4484,0.4508,0.4538,0.4559,0.4601,0.4635,0.4664,0.4709,0.4741,0.4757,0.4765,0.4794,0.4793,0.4791,0.4794,0.4811,0.481,0.4809,0.4822,0.4822,0.4822,0,0,0.431,0.4342,0.4363,0.4393,0.4439,0.4469,0.4474,0.4527,0.4547,0.4582,0.4614,0.4641,0.4698,0.4728,0.4751,0.4755,0.4778,0.4765,0.4752,0.4768,0.4767,0.4767,0.4768,0.4768,0.4766,0.4766,0.4766,0,0.4291,0.4334,0.4372,0.4399,0.4422,0.446,0.4482,0.451,0.4564,0.458,0.4587,0.4659,0.4693,0.4732,0.4732,0.475,0.4757,0.4759,0.4764,0.4764,0.4764,0.4766,0.4766,0.4764,0.4764,0.4765,0.4765,0,0.4307,0.4336,0.4349,0.4399,0.4424,0.4448,0.4491,0.4511,0.4534,0.4564,0.46,0.464,0.4683,0.4694,0.4718,0.4737,0.474,0.4755,0.4769,0.476,0.4763,0.4764,0.4761,0.4762,0.4763,0.4763,0,0,0.4277,0.4347,0.4351,0.4374,0.4427,0.4451,0.4477,0.4518,0.4534,0.4571,0.4594,0.4641,0.4655,0.4681,0.4708,0.4722,0.4722,0.4736,0.4738,0.4732,0.4746,0.4734,0.4734,0.4737,0.4738,0.4738,0.4742,0,0.4278,0.4326,0.4361,0.4396,0.4423,0.4459,0.4482,0.4517,0.4545,0.4573,0.4605,0.4637,0.4653,0.4669,0.4684,0.4719,0.4726,0.4719,0.476,0.4761,0.4748,0.4736,0.4724,0.4725,0.4743,0.4743,0.4744,0,0.4286,0.4319,0.4356,0.4405,0.4418,0.4438,0.4478,0.4504,0.4545,0.4564,0.4593,0.462,0.465,0.466,0.4702,0.4697,0.4715,0.4735,0.4736,0.4742,0.4752,0.4741,0.4727,0.4727,0.4745,0.4745,0.4745,0,0.426,0.4315,0.4344,0.4363,0.442,0.4433,0.4458,0.4499,0.4521,0.4556,0.4571,0.4609,0.463,0.4659,0.4696,0.47,0.4734,0.4748,0.4752,0.4751,0.4758,0.4757,0.4747,0.4769,0.4769,0.4769,0.4769,0,0.4257,0.4279,0.4333,0.4351,0.4376,0.4416,0.444,0.4468,0.4503,0.4528,0.4561,0.4583,0.4631,0.4659,0.4689,0.4719,0.4728,0.4745,0.4753,0.4742,0.474,0.4756,0.4756,0.4769,0.4769,0.4769,0.4769,0,0.4233,0.427,0.4304,0.4356,0.4369,0.4385,0.443,0.4449,0.4478,0.4509,0.4518,0.4565,0.46,0.464,0.4688,0.4708,0.4736,0.4747,0.4722,0.4726,0.4728,0.4727,0.4728,0.473,0.475,0.475,0.475,0,0.4229,0.4246,0.4299,0.4317,0.4341,0.437,0.4392,0.4432,0.4454,0.45,0.4514,0.4551,0.4583,0.4637,0.4676,0.4713,0.4725,0.4723,0.4731,0.472,0.4726,0.4724,0.4726,0.4721,0.472,0.472,0.472,0,0.4218,0.4235,0.4266,0.4302,0.4327,0.4358,0.4391,0.4404,0.445,0.4474,0.4509,0.4534,0.4582,0.4619,0.4661,0.4687,0.4711,0.4716,0.4719,0.4709,0.4694,0.4702,0.4716,0.4717,0.4717,0.4717,0.4717,0.4717,0.4204,0.4221,0.426,0.4293,0.4321,0.435,0.437,0.4402,0.4432,0.4474,0.4496,0.4531,0.4571,0.4629,0.4654,0.4683,0.4691,0.4695,0.4696,0.4697,0.4694,0.4689,0.4691,0.4691,0.4691,0.4691,0.4691,0,0.4195,0.4221,0.4251,0.4294,0.432,0.4339,0.4376,0.4396,0.4426,0.4461,0.4491,0.4532,0.4567,0.4608,0.4646,0.4661,0.4673,0.467,0.467,0.4675,0.4684,0.4678,0.466,0.466,0.466,0.466,0.466,0.466,0.4193,0.4222,0.4243,0.4287,0.4314,0.4348,0.4367,0.4394,0.4422,0.4465,0.4494,0.4521,0.4558,0.4599,0.4632,0.4644,0.4656,0.465,0.4664,0.4672,0.4675,0.4677,0.4671,0.4652,0.4652,0.4653,0.4653,0.4653]}]]